User: anonymous   Login
Location: Albany
(35.0000°S, 118.0000°E)
Time: 03:07:06
(UTC-05:00)
Language:

Atlas Centaur 2 - Orbit

View from above orbital plane
View from above orbital plane
View from above satellite
View from above satellite

Ground track
Ground track

The orbit data is extracted from the following two-line orbital elements,

1 00694U 63047A   16044.23776014  .00001375  00000-0  17084-3 0  9993
2 00694  30.3567 339.4750 0589852 102.3100 264.4139 14.01610494613919
Epoch (UTC): 13 February 2016 05:42:22
Eccentricity: 0.0589852
inclination: 30.3567°
perigee height: 459 km
apogee height: 1317 km
right ascension of ascending node: 339.4750°
argument of perigee: 102.3100°
revolutions per day: 14.01610494
mean anomaly at epoch: 264.4139°
orbit number at epoch: 61391

The dashed part of the orbit path shows where the satellite is in the earth's shadow,  

DLR